[[{"header":{"parameterUnit":"m.s-1","parameterCategory":1,"la1":30.2991,"la2":30.254,"lo1":-89.0895,"lo2":-89.0444,"dy":0.0017,"dx":0.0017,"nx":28,"ny":28,"refTime":"2024-08-23T03:00:00:Z","depth":0,"parameterNumber":2,"parameterNumberName":"U-component_of_WINDS"},"data":[0,0,0,0,0,0,0,0,0,0,0,0,0,0,0,0,0,0,0,0,0,0,0,0,0,0,0,0,0,0,0,0,0,0,0,0,0,0,0,0,0,0,0,0,0,0,0,0,0,0,0,0,0,0,0,0,0,0,-6.2012,-6.2012,0,-6.201,-6.201,-6.201,-6.1825,-6.182,-6.1815,-6.1811,-6.1809,-6.1814,-6.1818,0,0,0,0,0,0,0,0,0,0,0,0,0,-6.1854,-6.1858,-6.2012,-6.2012,-6.2012,-6.201,-6.201,-6.201,-6.1826,-6.182,-6.1814,-6.1809,-6.1808,-6.1813,-6.1819,0,0,0,0,0,0,0,0,0,0,0,0,0,-6.1895,-6.1859,-6.2012,-6.192,-6.1911,-6.201,-6.201,-6.201,-6.1827,-6.182,-6.1813,-6.1806,-6.1806,-6.1813,-6.1819,-6.2007,0,0,-6.184,-6.1843,0,0,0,0,0,0,0,0,-6.1893,-6.1901,-6.1933,-6.1926,-6.1917,-6.191,-6.1954,-6.2009,-6.1829,-6.1859,-6.1811,-6.1802,-6.1849,-6.1852,-6.1867,-6.2007,-6.2007,-6.1841,-6.1845,-6.1848,-6.1849,0,0,0,0,0,0,0,-6.189,-6.19,-6.2011,-6.1934,-6.1924,-6.1878,-6.1876,-6.1964,-6.1895,-6.1856,-6.1842,-6.1845,-6.1843,-6.1861,-6.1866,-6.2006,-6.184,-6.1846,-6.1851,-6.1853,-6.2298,-6.2305,0,0,0,0,0,0,-6.19,-6.1899,-6.2011,-6.2011,-6.1887,-6.1887,-6.1884,-6.192,-6.1893,-6.1882,-6.1851,-6.1836,-6.1853,-6.1858,-6.1865,-6.208,-6.1847,-6.1854,-6.1858,-6.229,-6.2299,-6.2308,0,0,0,0,0,0,-6.1897,-6.1912,-6.2011,-6.1951,-6.196,-6.1897,-6.1939,-6.1924,-6.1942,-6.189,-6.1876,-6.1882,-6.1848,-6.1856,-6.1972,-6.2078,-6.1857,-6.1863,-6.2281,-6.2293,-6.2303,-6.2515,0,0,0,0,0,0,-6.1894,-6.1912,-6.1983,-6.1954,-6.1964,-6.2119,-6.1945,-6.1929,-6.1954,-6.1934,-6.1916,-6.1905,-6.1843,-6.1963,-6.1979,-6.2083,-6.1868,-6.2271,-6.2286,-6.23,-6.2498,-6.2532,-6.2561,0,0,0,0,0,-6.1889,-6.2042,-6.1987,-6.2002,-6.2051,-6.2126,-6.2131,-6.2056,-6.1963,-6.2033,-6.2,-6.1906,-6.2065,-6.1977,-6.1993,-6.2101,-6.2264,-6.2282,-6.2299,-6.2484,-6.2525,-6.2561,0,0,0,0,0,0,-6.2084,-6.2037,-6.1975,-6.2124,-6.2131,-6.2094,-6.218,-6.2103,-6.2135,-6.2116,-6.2021,-6.2019,-6.215,-6.2137,-6.204,-6.228,-6.2148,-6.2169,-6.2283,-6.2322,-6.2353,-6.2352,-6.1874,0,0,0,0,0,-6.2145,-6.221,-6.2165,-6.2301,-6.2307,-6.2244,-6.2273,-6.2215,-6.2217,-6.2219,-6.2194,-6.22,-6.2251,-6.2286,-6.233,-6.2496,-6.2488,-6.2579,-6.261,-6.2637,-6.2655,-6.274,-6.2779,-6.2365,-6.2365,-6.2365,0,0,-6.2271,-6.2253,-6.2299,-6.234,-6.2337,-6.2405,-6.2247,-6.2326,-6.2376,-6.2231,-6.2338,-6.2322,-6.2322,-6.2464,-6.2525,-6.2457,-6.2769,-6.2659,-6.268,-6.2684,-6.2762,-6.2802,-6.2836,-6.2377,-6.2375,-6.2373,0,0,-6.2533,-6.2528,-6.2639,-6.2641,-6.2639,-6.2596,-6.2624,-6.26,-6.2582,-6.2689,-6.2582,-6.264,-6.273,-6.2734,-6.2748,-6.3014,-6.2928,-6.3032,-6.3196,-6.328,-6.3312,-6.3341,-6.3433,-6.3468,-6.3051,-6.3052,-6.3052,0,-6.2689,-6.2788,-6.2706,-6.2792,-6.2813,-6.2686,-6.2797,-6.2803,-6.2817,-6.2834,-6.2758,-6.2868,-6.2859,-6.2999,-6.3064,-6.3081,-6.3108,-6.3031,-6.3315,-6.3342,-6.3367,-6.3454,-6.349,-6.3064,-6.3063,-6.3061,-6.306,0,-6.2978,-6.3049,-6.3139,-6.3155,-6.3186,-6.3285,-6.3218,-6.3259,-6.3199,-6.3165,-6.3275,-6.3261,-6.3299,-6.3329,-6.3271,-6.3461,-6.3418,-6.3331,-6.3195,-6.3421,-6.35,-6.3533,-6.3082,-6.3077,-6.3073,-6.307,0,0,-6.3361,-6.3332,-6.3366,-6.3371,-6.3361,-6.3414,-6.3508,-6.3545,-6.3581,-6.3596,-6.367,-6.3751,-6.3669,-6.3685,-6.3627,-6.3702,-6.3911,-6.3604,-6.3602,-6.3659,-6.4116,-6.418,-6.422,-6.3855,-6.3861,-6.3866,-6.4115,0,-6.3613,-6.377,-6.37,-6.3863,-6.3926,-6.3808,-6.3889,-6.3892,-6.3863,-6.3911,-6.3879,-6.3936,-6.3826,-6.3834,-6.3903,-6.3871,-6.4001,-6.3852,-6.3922,-6.3925,-6.3922,-6.4262,-6.4329,-6.4565,-6.4146,-6.4152,-6.4156,0,-6.3927,-6.3954,-6.4125,-6.4103,-6.4126,-6.42,-6.4228,-6.4278,-6.4279,-6.4252,-6.4271,-6.4196,-6.4286,-6.4155,-6.4276,-6.4176,-6.4201,-6.419,-6.4198,-6.4198,-6.4052,-6.4269,-6.4638,-6.4673,-6.4205,-6.4201,-6.4197,0,-6.4185,-6.4265,-6.4376,-6.4385,-6.4363,-6.4418,-6.4412,-6.4405,-6.4432,-6.4458,-6.4474,-6.451,-6.4529,-6.4559,-6.4496,-6.4407,-6.4626,-6.4489,-6.4604,-6.4606,-6.4652,-6.465,-6.5028,-6.4676,-6.4675,-6.4674,-6.4674,0,-6.4472,-6.458,-6.4492,-6.456,-6.4678,-6.4597,-6.4716,-6.4696,-6.4692,-6.4754,-6.4656,-6.4716,-6.463,-6.4683,-6.4635,-6.4741,-6.4751,-6.4731,-6.4716,-6.4738,-6.474,-6.475,-6.4731,-6.4684,-6.4682,-6.468,-6.4678,0,-6.4778,-6.4724,-6.4837,-6.4808,-6.4803,-6.4891,-6.4865,-6.4927,-6.4892,-6.4972,-6.4986,-6.4931,-6.4987,-6.4928,-6.4981,-6.4948,-6.5091,-6.5054,-6.509,-6.5078,-6.5195,-6.5184,-6.559,-6.5638,-6.5259,-6.5263,-6.5266,0,-6.4962,-6.5042,-6.5022,-6.5056,-6.5056,-6.5113,-6.514,-6.5065,-6.5097,-6.5104,-6.5165,-6.5213,-6.5247,-6.5343,-6.5307,-6.5347,-6.5308,-6.5448,-6.5313,-6.5332,-6.5306,-6.53,-6.5307,-6.5474,-6.5479,-6.5482,-6.5485,0,-6.5294,-6.5263,-6.5306,-6.534,-6.5375,-6.5398,-6.5413,-6.5447,-6.5369,-6.5411,-6.5467,-6.5494,-6.5547,-6.5596,-6.5625,-6.5618,-6.5539,-6.5529,-6.5557,-6.5577,-6.5594,-6.5583,-6.5161,-6.5519,-6.5515,-6.5513,-6.5511,-6.551,-6.5542,-6.5607,-6.5602,-6.5653,-6.5657,-6.5674,-6.573,-6.5702,-6.5748,-6.5785,-6.5739,-6.5808,-6.5807,-6.5838,-6.5841,-6.5894,-6.5834,-6.5876,-6.5885,-6.5896,-6.5912,-6.5589,-6.5899,-6.5898,-6.5897,-6.5897,-6.5896,0,-6.5865,-6.5856,-6.5904,-6.5929,-6.5969,-6.5893,-6.5906,-6.5944,-6.6006,-6.6012,-6.6048,-6.6113,-6.616,-6.6129,-6.6169,-6.6217,-6.6182,-6.623,-6.6223,-6.6222,-6.5964,-6.5934,-6.6257,-6.6257,-6.6257,-6.6257,-6.6257,-6.6257,-6.6037,-6.6142,-6.6112,-6.6218,-6.6209,-6.6276,-6.629,-6.6305,-6.6309,-6.6385,-6.6424,-6.6404,-6.6395,-6.6433,-6.6473,-6.6463,-6.648,-6.6541,-6.6518,-6.6276,-6.6241,-6.6207,-6.6178,-6.6547,-6.6547,-6.677,-6.6772,-6.6774]},{"header":{"parameterUnit":"m.s-1","parameterCategory":1,"la1":30.2991,"la2":30.254,"lo1":-89.0895,"lo2":-89.0444,"dy":0.0017,"dx":0.0017,"nx":28,"ny":28,"refTime":"2024-08-23T03:00:00:Z","depth":0,"parameterNumber":3,"parameterNumberName":"V-component_of_WINDS"},"data":[0,0,0,0,0,0,0,0,0,0,0,0,0,0,0,0,0,0,0,0,0,0,0,0,0,0,0,0,0,0,0,0,0,0,0,0,0,0,0,0,0,0,0,0,0,0,0,0,0,0,0,0,0,0,0,0,0,0,-2.7763,-2.7763,0,-2.7692,-2.7692,-2.7691,-2.7596,-2.7595,-2.7593,-2.7592,-2.7518,-2.7518,-2.7517,0,0,0,0,0,0,0,0,0,0,0,0,0,-2.7815,-2.7814,-2.7763,-2.7763,-2.7762,-2.7693,-2.7692,-2.7691,-2.7597,-2.7595,-2.7593,-2.7591,-2.7519,-2.7518,-2.7517,0,0,0,0,0,0,0,0,0,0,0,0,0,-2.7773,-2.7814,-2.7764,-2.7706,-2.7701,-2.7693,-2.7692,-2.769,-2.7597,-2.7595,-2.7592,-2.759,-2.7519,-2.7518,-2.7517,-2.7559,0,0,-2.7515,-2.7515,0,0,0,0,0,0,0,0,-2.7775,-2.7771,-2.7716,-2.771,-2.7704,-2.7651,-2.7683,-2.7646,-2.7598,-2.7636,-2.7592,-2.7589,-2.7564,-2.756,-2.7552,-2.7556,-2.7553,-2.7515,-2.7515,-2.7514,-2.7514,0,0,0,0,0,0,0,-2.7778,-2.7774,-2.7735,-2.7715,-2.7708,-2.7683,-2.7675,-2.7675,-2.7614,-2.7633,-2.7626,-2.7619,-2.7561,-2.7553,-2.7549,-2.7552,-2.7515,-2.7514,-2.7514,-2.7514,-2.7583,-2.7585,0,0,0,0,0,0,-2.779,-2.7777,-2.7737,-2.7733,-2.7735,-2.7684,-2.7675,-2.767,-2.7614,-2.7603,-2.7621,-2.7615,-2.7555,-2.755,-2.7546,-2.7589,-2.7514,-2.7513,-2.7513,-2.758,-2.7583,-2.7586,0,0,0,0,0,0,-2.7792,-2.7788,-2.774,-2.7753,-2.7745,-2.7686,-2.7682,-2.767,-2.7662,-2.7605,-2.7593,-2.7624,-2.7553,-2.7547,-2.7556,-2.7585,-2.7513,-2.7512,-2.7578,-2.7581,-2.7584,-2.7677,0,0,0,0,0,0,-2.7793,-2.7789,-2.7805,-2.7754,-2.7745,-2.7753,-2.7683,-2.767,-2.7661,-2.7652,-2.7605,-2.7595,-2.7551,-2.7558,-2.7555,-2.7583,-2.7512,-2.7575,-2.7579,-2.7583,-2.7671,-2.7683,-2.7693,0,0,0,0,0,-2.7796,-2.7834,-2.7806,-2.7802,-2.7764,-2.7755,-2.7749,-2.7698,-2.7664,-2.7679,-2.7642,-2.7596,-2.7583,-2.7559,-2.7556,-2.7584,-2.7573,-2.7578,-2.7583,-2.7666,-2.768,-2.7693,0,0,0,0,0,0,-2.7891,-2.7827,-2.7795,-2.7819,-2.7793,-2.7739,-2.7756,-2.7716,-2.7699,-2.7691,-2.7628,-2.7618,-2.7634,-2.761,-2.7585,-2.7619,-2.757,-2.7575,-2.7634,-2.7648,-2.7659,-2.7664,-2.7511,0,0,0,0,0,-2.7914,-2.7913,-2.7857,-2.7883,-2.7871,-2.7816,-2.781,-2.7773,-2.7743,-2.7732,-2.7696,-2.7668,-2.7657,-2.7651,-2.7638,-2.7667,-2.7653,-2.7684,-2.7695,-2.7704,-2.7709,-2.7718,-2.773,-2.7602,-2.7602,-2.7602,0,0,-2.7963,-2.7928,-2.7931,-2.7901,-2.7877,-2.7875,-2.7808,-2.781,-2.7807,-2.7732,-2.7737,-2.771,-2.7675,-2.7692,-2.7698,-2.7673,-2.7741,-2.7711,-2.7719,-2.7718,-2.7725,-2.7737,-2.7748,-2.7606,-2.7605,-2.7605,0,0,-2.8051,-2.8026,-2.8043,-2.8019,-2.7983,-2.7946,-2.795,-2.7901,-2.788,-2.7884,-2.7827,-2.7822,-2.7806,-2.7782,-2.7768,-2.7844,-2.78,-2.7841,-2.79,-2.791,-2.792,-2.7928,-2.7952,-2.7962,-2.7846,-2.7846,-2.7847,0,-2.8117,-2.8112,-2.8057,-2.8062,-2.8049,-2.798,-2.7996,-2.7976,-2.7937,-2.7929,-2.7901,-2.7876,-2.7848,-2.7857,-2.7876,-2.7867,-2.7868,-2.7846,-2.7923,-2.7931,-2.7938,-2.796,-2.797,-2.7851,-2.7851,-2.785,-2.785,0,-2.8193,-2.8191,-2.8209,-2.8173,-2.8162,-2.8173,-2.8117,-2.8113,-2.8076,-2.8041,-2.8044,-2.8008,-2.7984,-2.7984,-2.7949,-2.7988,-2.7972,-2.7935,-2.7884,-2.7956,-2.7976,-2.7984,-2.7859,-2.7857,-2.7855,-2.7854,0,0,-2.8339,-2.8271,-2.8278,-2.8259,-2.8213,-2.8209,-2.8216,-2.8193,-2.8189,-2.8164,-2.8166,-2.8152,-2.8115,-2.8099,-2.806,-2.8069,-2.8127,-2.8029,-2.8027,-2.8046,-2.8164,-2.8192,-2.8203,-2.8098,-2.81,-2.8101,-2.8166,0,-2.8417,-2.8424,-2.8373,-2.8393,-2.8389,-2.8322,-2.8327,-2.8298,-2.8265,-2.8256,-2.8219,-2.8209,-2.8163,-2.8152,-2.8158,-2.8119,-2.815,-2.8114,-2.8097,-2.8097,-2.8107,-2.8214,-2.8244,-2.8307,-2.8174,-2.8176,-2.8176,0,-2.8508,-2.8487,-2.8507,-2.8457,-2.8453,-2.8458,-2.8431,-2.8424,-2.8389,-2.8364,-2.8345,-2.8299,-2.8299,-2.8252,-2.825,-2.8226,-2.8216,-2.8196,-2.8197,-2.8192,-2.814,-2.821,-2.8327,-2.8335,-2.8189,-2.8188,-2.8187,0,-2.8609,-2.8586,-2.8594,-2.8581,-2.8523,-2.8528,-2.8504,-2.8467,-2.8455,-2.8431,-2.8423,-2.84,-2.8387,-2.8369,-2.8317,-2.8288,-2.8319,-2.8269,-2.8296,-2.8298,-2.8305,-2.8305,-2.842,-2.8302,-2.8302,-2.8302,-2.8302,0,-2.87,-2.8714,-2.8639,-2.8643,-2.8656,-2.8597,-2.8611,-2.858,-2.8547,-2.8543,-2.8484,-2.8482,-2.8414,-2.8403,-2.8363,-2.8365,-2.836,-2.8338,-2.8327,-2.8343,-2.8345,-2.8334,-2.8327,-2.8305,-2.8304,-2.8304,-2.8303,0,-2.8815,-2.8766,-2.8769,-2.8714,-2.87,-2.8712,-2.8664,-2.8664,-2.8627,-2.8623,-2.8618,-2.856,-2.8543,-2.849,-2.8461,-2.8433,-2.8447,-2.8427,-2.8459,-2.8451,-2.8481,-2.8478,-2.8591,-2.8602,-2.848,-2.8482,-2.8483,0,-2.8875,-2.8884,-2.8829,-2.8823,-2.8801,-2.8792,-2.8779,-2.872,-2.871,-2.8669,-2.8674,-2.8653,-2.8633,-2.8609,-2.8563,-2.8539,-2.8517,-2.8558,-2.8513,-2.8527,-2.8514,-2.8513,-2.8512,-2.8567,-2.8569,-2.857,-2.8571,0,-2.8986,-2.896,-2.8945,-2.8921,-2.8907,-2.8885,-2.886,-2.8857,-2.8791,-2.8782,-2.8764,-2.8749,-2.8718,-2.8697,-2.8665,-2.8638,-2.8593,-2.8586,-2.8591,-2.8606,-2.8623,-2.8611,-2.8483,-2.8584,-2.8582,-2.8581,-2.8581,-2.858,-2.9073,-2.9077,-2.9038,-2.9022,-2.8997,-2.8974,-2.8971,-2.8933,-2.8918,-2.8888,-2.8854,-2.884,-2.8801,-2.8754,-2.8731,-2.8717,-2.8693,-2.8701,-2.8702,-2.8704,-2.871,-2.8627,-2.8711,-2.8711,-2.8711,-2.871,-2.871,0,-2.9178,-2.915,-2.9136,-2.9102,-2.9088,-2.9048,-2.9017,-2.9008,-2.8997,-2.8965,-2.8946,-2.8924,-2.8903,-2.8854,-2.8827,-2.8826,-2.8804,-2.882,-2.8819,-2.8813,-2.8735,-2.8732,-2.8838,-2.8838,-2.8838,-2.8838,-2.8838,-2.8838,-2.9231,-2.9234,-2.9204,-2.9193,-2.9164,-2.915,-2.9136,-2.9113,-2.9087,-2.9066,-2.9048,-2.9016,-2.8976,-2.8946,-2.8923,-2.8909,-2.8901,-2.8924,-2.8903,-2.8831,-2.8819,-2.8807,-2.8804,-2.8923,-2.8923,-2.8981,-2.8982,-2.8982]}]]